Weather in Sodertalje

Sweden     59°12′05″N   17°35′58″E
temp.,
°C
wind,
m/s
gust,
m/s
humid.,
%
clouds,
%
prec.,
mm/h
press.,
hPa
HPBL,
m
22 june, tue
tue2223:00+18ese36906 0.0 100989
02:00+17se48925 0.0 1008131
05:00+17se25895 0.3 1007111
08:00+20ssw24805 1.3 1007244
11:00+24wnw23629 0.0 1007755
14:00+24nnw456243 0.2 1008885
17:00+18n799132 1.5 1011352
20:00+15n578996 1.9 1013414
23 june, wed
wed2323:00+14nne5890100 0.0 1014460
02:00+14nne369084 0.1 1015345
05:00+14n3790100 0.1 1015349
08:00+15nne369292 1.1 1016346
11:00+17ne368099 0.1 1016386
14:00+18ene357179 0.3 1016459
17:00+19ne346642 0.1 1016497
20:00+19e227073 0.1 1016234
24 june, thu
thu2423:00+15s239362 0.0 101767
02:00+15se229498 0.0 101739
05:00+15sse1190100 0.0 101749
08:00+16e1185100 0.0 1018108
11:00+17ne1176100 0.0 1018224
14:00+18nne216371 0.0 1018427
17:00+20ne126119 0.2 1017614
20:00+19sse137934 0.4 1016144
25 june, fri
fri2523:00+15s23957 0.0 101642
02:00+14s229630 0.0 101629
05:00+15ese0092100 0.0 101523
08:00+18ene00795 0.0 1016226
11:00+20nne116717 0.0 1015783
14:00+21nne116042 0.1 10141046
17:00+23ssw225774 0.0 1014568
20:00+22ene016656 0.0 101327
26 june, sat
sat2623:00+17ne0181100 0.0 101312
02:00+16ne238690 0.0 101438
05:00+15nne368429 0.0 1013149
08:00+18n35595 0.0 1013225
11:00+21n365570 0.0 1013633
14:00+23nne345161 0.0 1011997
17:00+19e3569100 0.1 1012183
20:00+18ne1390100 1.3 101181